This is the latest recevied weather packets stored in our database for station/object KD2ZLA. If no packets are shown the sender has not sent any weather packets the latest 10 day(s).
| Time | Temp. | Humidity | Pressure | Rain* | Wind** | Luminosity | Snow |
|---|---|---|---|---|---|---|---|
| 1777574945 | 7.22° C | 82% | 1008.5 hPa | 0 mm | - | 142 W/m² | - |
| 1777574641 | 7.22° C | 82% | 1008.6 hPa | 0 mm | - | 99 W/m² | - |
| 1777574338 | 7.22° C | 81% | 1008.6 hPa | 0 mm | - | 142 W/m² | - |
| 1777574038 | 7.22° C | 83% | 1008.4 hPa | 0 mm | - | 142 W/m² | - |
| 1777573733 | 7.22° C | 82% | 1008.5 hPa | 0 mm | - | 148 W/m² | - |
| 1777573429 | 7.22° C | 82% | 1008.5 hPa | 0 mm | - | 127 W/m² | - |
| 1777573125 | 7.22° C | 82% | 1008.6 hPa | 0 mm | - | 96 W/m² | - |
| 1777572822 | 7.22° C | 82% | 1008.6 hPa | 0 mm | - | 103 W/m² | - |
| 1777572518 | 7.22° C | 81% | 1008.5 hPa | 0 mm | - | 199 W/m² | - |
| 1777572213 | 7.22° C | 82% | 1008.4 hPa | 0 mm | - | 175 W/m² | - |
| 1777571909 | 7.22° C | 83% | 1008.4 hPa | 0 mm | - | 168 W/m² | - |
| 1777571604 | 7.22° C | 83% | 1008.4 hPa | 0 mm | - | 154 W/m² | - |
| 1777571302 | 7.22° C | 84% | 1008.4 hPa | 0 mm | - | 135 W/m² | - |
| 1777570998 | 6.67° C | 84% | 1008.4 hPa | 0 mm | - | 139 W/m² | - |
| 1777570694 | 6.67° C | 84% | 1008.2 hPa | 0 mm | - | 144 W/m² | - |
| 1777570390 | 6.67° C | 84% | 1008.4 hPa | 0 mm | - | 130 W/m² | - |
| 1777570086 | 6.67° C | 85% | 1008.2 hPa | 0 mm | - | 115 W/m² | - |
| 1777569782 | 6.67° C | 85% | 1008.2 hPa | 0 mm | - | 100 W/m² | - |
| 1777569478 | 6.67° C | 85% | 1008.3 hPa | 0 mm | - | 97 W/m² | - |
| 1777569175 | 6.67° C | 85% | 1008.3 hPa | 0 mm | - | 100 W/m² | - |
| 1777568871 | 6.67° C | 86% | 1008.2 hPa | 0 mm | - | 136 W/m² | - |
| 1777568569 | 6.67° C | 85% | 1008.1 hPa | 0 mm | - | 155 W/m² | - |
| 1777568265 | 6.67° C | 86% | 1007.9 hPa | 0 mm | - | 139 W/m² | - |
| 1777567962 | 6.67° C | 85% | 1008.1 hPa | 0 mm | - | 135 W/m² | - |
| 1777567658 | 6.67° C | 86% | 1008 hPa | 0 mm | - | 166 W/m² | - |
* Rain latest hour (hover to see other rain measurements)
** Current wind speed in m/s (hover to see current wind gust speed)